Torna al catalogo

COSMOS 1853

AttivoNavigazioneLEO
NORAD 18114·PAYLOAD·🇷🇺 Russia

Lanciato Jun 16, 1987 da Plesetsk Cosmodrome

Loading…

Prossimi Passaggi (prossime 24 ore)

TLE

AggiornatoSource: Space-Track

Epoca: Sep 14, 2026, 13:36 UTC

1 18114U 87051B   26257.56679788 -.00000010  00000-0  40647-4 0  9991
2 18114  74.0021 290.3851 0005829  45.3970  28.2982 12.47020547786656

Traccia COSMOS 1853 in tempo reale con AllMySat

Download on the App Store